• In Hungary
  • List of Countries
  • For 7 days
  • Water Temperature
  • Satellite Maps
  • Weather Map
  • News
  • Weather Widgets
  • user-avatar
    Login

    Hourly Weather Al-Budajji

    Today, 23 February, Friday

    Time Temperature Precipitation Wind Pressure Humidity
    00:00 +25°C° 0.1 mm 3 mps 760 mmHg 61%
    01:00 +25°C° 0.1 mm 3 mps 760 mmHg 60%
    02:00 +25°C° 0 mm 2 mps 760 mmHg 62%
    03:00 +25°C° 0 mm 2 mps 760 mmHg 63%
    04:00 +25°C° 0 mm 1 mps 760 mmHg 65%
    05:00 +25°C° 0 mm 1 mps 760 mmHg 64%
    06:00 +25°C° 0 mm 1 mps 760 mmHg 63%
    07:00 +25°C° 0 mm 2 mps 761 mmHg 62%
    08:00 +25°C° 0 mm 2 mps 761 mmHg 62%
    09:00 +25°C° 0 mm 3 mps 761 mmHg 62%
    10:00 +25°C° 0 mm 2 mps 761 mmHg 62%
    11:00 +25°C° 0 mm 2 mps 761 mmHg 62%
    12:00 +25°C° 0 mm 2 mps 761 mmHg 62%
    13:00 +25°C° 0 mm 2 mps 761 mmHg 63%
    14:00 +25°C° 0 mm 3 mps 760 mmHg 63%
    15:00 +26°C° 0 mm 3 mps 760 mmHg 63%
    16:00 +26°C° 0 mm 3 mps 760 mmHg 63%
    17:00 +26°C° 0 mm 3 mps 760 mmHg 64%
    18:00 +25°C° 0 mm 4 mps 760 mmHg 65%
    19:00 +25°C° 0 mm 5 mps 760 mmHg 65%
    20:00 +25°C° 0 mm 5 mps 760 mmHg 65%
    21:00 +25°C° 0 mm 4 mps 760 mmHg 64%
    22:00 +25°C° 0 mm 4 mps 760 mmHg 64%
    23:00 +25°C° 0 mm 4 mps 760 mmHg 63%

    Tomorrow, 24 February, Saturday

    Time Temperature Precipitation Wind Pressure Humidity
    00:00 +25°C° 0 mm 4 mps 760 mmHg 63%
    01:00 +25°C° 0 mm 4 mps 759 mmHg 62%
    02:00 +25°C° 0 mm 4 mps 759 mmHg 63%
    03:00 +25°C° 0 mm 4 mps 759 mmHg 64%
    04:00 +25°C° 0 mm 3 mps 759 mmHg 65%
    05:00 +25°C° 0.1 mm 3 mps 759 mmHg 65%
    06:00 +25°C° 0.1 mm 3 mps 760 mmHg 65%
    07:00 +25°C° 0.1 mm 2 mps 760 mmHg 65%
    08:00 +25°C° 0 mm 3 mps 760 mmHg 64%
    09:00 +25°C° 0 mm 3 mps 760 mmHg 63%
    10:00 +25°C° 0 mm 3 mps 761 mmHg 62%
    11:00 +26°C° 0 mm 3 mps 760 mmHg 62%
    12:00 +26°C° 0 mm 3 mps 760 mmHg 61%
    13:00 +26°C° 0 mm 3 mps 760 mmHg 60%
    14:00 +26°C° 0 mm 4 mps 760 mmHg 63%
    15:00 +25°C° 0 mm 5 mps 760 mmHg 65%
    16:00 +25°C° 0 mm 5 mps 759 mmHg 67%
    17:00 +24°C° 0.1 mm 6 mps 760 mmHg 69%
    18:00 +23°C° 0.1 mm 7 mps 760 mmHg 70%
    19:00 +23°C° 0.1 mm 8 mps 760 mmHg 72%
    20:00 +23°C° 0.1 mm 7 mps 760 mmHg 73%
    21:00 +23°C° 0.1 mm 7 mps 760 mmHg 75%
    22:00 +23°C° 0.1 mm 6 mps 760 mmHg 76%
    23:00 +23°C° 0 mm 6 mps 760 mmHg 77%

    Day after tomorrow, 25 February, Sunday

    Time Temperature Precipitation Wind Pressure Humidity
    00:00 +22°C° 0 mm 6 mps 760 mmHg 78%
    01:00 +22°C° 0 mm 5 mps 760 mmHg 79%
    02:00 +22°C° 0.6 mm 5 mps 760 mmHg 79%
    03:00 +22°C° 0.6 mm 4 mps 761 mmHg 80%
    04:00 +22°C° 0.6 mm 4 mps 761 mmHg 80%
    05:00 +21°C° 3.6 mm 4 mps 761 mmHg 80%
    06:00 +21°C° 3.6 mm 4 mps 762 mmHg 80%
    07:00 +20°C° 3.6 mm 3 mps 762 mmHg 80%
    08:00 +20°C° 0.6 mm 3 mps 762 mmHg 80%
    09:00 +20°C° 0.6 mm 3 mps 763 mmHg 79%
    10:00 +20°C° 0.6 mm 3 mps 763 mmHg 78%
    11:00 +20°C° 0.1 mm 3 mps 763 mmHg 78%
    12:00 +21°C° 0.1 mm 3 mps 763 mmHg 77%
    13:00 +21°C° 0.1 mm 3 mps 762 mmHg 77%
    14:00 +21°C° 0 mm 3 mps 762 mmHg 76%
    15:00 +21°C° 0 mm 2 mps 762 mmHg 74%
    16:00 +21°C° 0 mm 2 mps 762 mmHg 73%
    17:00 +21°C° 0 mm 2 mps 762 mmHg 73%
    18:00 +23°C° 0 mm 1 mps 762 mmHg 73%
    19:00 +23°C° 0 mm 1 mps 762 mmHg 72%
    20:00 +23°C° 0 mm 1 mps 763 mmHg 73%
    21:00 +23°C° 0 mm 1 mps 763 mmHg 73%
    22:00 +23°C° 0 mm 1 mps 763 mmHg 73%
    23:00 +23°C° 0 mm 1 mps 763 mmHg 73%

    26 February, Monday

    Time Temperature Precipitation Wind Pressure Humidity
    00:00 +23°C° 0 mm 1 mps 763 mmHg 73%
    01:00 +22°C° 0 mm 1 mps 763 mmHg 73%
    02:00 +22°C° 0 mm 1 mps 763 mmHg 73%
    03:00 +22°C° 0 mm 1 mps 763 mmHg 73%
    04:00 +21°C° 0 mm 2 mps 763 mmHg 73%
    05:00 +21°C° 0 mm 2 mps 763 mmHg 72%
    06:00 +21°C° 0 mm 2 mps 763 mmHg 72%
    07:00 +21°C° 0 mm 2 mps 763 mmHg 71%
    08:00 +23°C° 0 mm 2 mps 764 mmHg 71%
    09:00 +23°C° 0 mm 2 mps 764 mmHg 70%
    10:00 +23°C° 0 mm 1 mps 765 mmHg 70%
    11:00 +23°C° 0 mm 1 mps 764 mmHg 69%
    12:00 +23°C° 0 mm 1 mps 764 mmHg 68%
    13:00 +23°C° 0 mm 1 mps 763 mmHg 67%
    14:00 +23°C° 0 mm 1 mps 763 mmHg 66%
    15:00 +23°C° 0 mm 1 mps 762 mmHg 65%
    16:00 +24°C° 0 mm 1 mps 762 mmHg 64%
    17:00 +24°C° 0 mm 1 mps 762 mmHg 66%
    18:00 +24°C° 0 mm 1 mps 762 mmHg 67%
    19:00 +24°C° 0 mm 1 mps 762 mmHg 69%
    20:00 +24°C° 0 mm 1 mps 763 mmHg 69%
    21:00 +23°C° 0 mm 1 mps 763 mmHg 70%
    22:00 +23°C° 0 mm 1 mps 764 mmHg 70%
    23:00 +23°C° 0 mm 1 mps 763 mmHg 69%

    27 February, Tuesday

    Time Temperature Precipitation Wind Pressure Humidity
    00:00 +23°C° 0 mm 1 mps 763 mmHg 68%
    01:00 +23°C° 0 mm 1 mps 763 mmHg 68%
    02:00 +23°C° 0 mm 2 mps 762 mmHg 68%
    03:00 +22°C° 0 mm 3 mps 762 mmHg 68%
    04:00 +22°C° 0 mm 4 mps 761 mmHg 69%
    05:00 +22°C° 0 mm 4 mps 762 mmHg 70%
    06:00 +22°C° 0 mm 4 mps 762 mmHg 71%
    07:00 +23°C° 0 mm 5 mps 762 mmHg 72%
    08:00 +23°C° 0 mm 5 mps 763 mmHg 72%
    09:00 +23°C° 0 mm 5 mps 763 mmHg 73%
    10:00 +23°C° 0 mm 5 mps 763 mmHg 73%
    11:00 +23°C° 0 mm 4 mps 763 mmHg 73%
    12:00 +23°C° 0 mm 4 mps 763 mmHg 73%
    13:00 +23°C° 0 mm 4 mps 763 mmHg 73%
    14:00 +23°C° 0 mm 4 mps 762 mmHg 74%
    15:00 +23°C° 0 mm 4 mps 762 mmHg 74%
    16:00 +23°C° 0 mm 4 mps 761 mmHg 75%
    17:00 +23°C° 0 mm 4 mps 761 mmHg 75%
    18:00 +23°C° 0 mm 4 mps 761 mmHg 75%
    19:00 +23°C° 0 mm 4 mps 761 mmHg 76%
    20:00 +23°C° 0 mm 4 mps 762 mmHg 74%
    21:00 +23°C° 0 mm 4 mps 762 mmHg 72%
    22:00 +23°C° 0 mm 4 mps 762 mmHg 70%
    23:00 +23°C° 0 mm 4 mps 762 mmHg 68%

    28 February, Wednesday

    Time Temperature Precipitation Wind Pressure Humidity
    00:00 +25°C° 0 mm 4 mps 761 mmHg 66%
    01:00 +25°C° 0 mm 5 mps 761 mmHg 64%
    02:00 +25°C° 0 mm 5 mps 761 mmHg 65%
    03:00 +24°C° 0 mm 6 mps 760 mmHg 67%
    04:00 +24°C° 0 mm 6 mps 760 mmHg 68%
    05:00 +23°C° 0 mm 6 mps 760 mmHg 69%
    06:00 +23°C° 0 mm 6 mps 761 mmHg 71%
    07:00 +23°C° 0 mm 6 mps 761 mmHg 72%
    08:00 +24°C° 0 mm 6 mps 761 mmHg 72%
    09:00 +24°C° 0 mm 6 mps 761 mmHg 72%
    10:00 +24°C° 0 mm 6 mps 762 mmHg 72%
    11:00 +24°C° 0 mm 7 mps 761 mmHg 73%
    12:00 +24°C° 0 mm 7 mps 761 mmHg 74%
    13:00 +24°C° 0 mm 7 mps 760 mmHg 75%
    14:00 +24°C° 0 mm 6 mps 760 mmHg 75%
    15:00 +25°C° 0 mm 5 mps 760 mmHg 76%
    16:00 +25°C° 0 mm 5 mps 760 mmHg 76%
    17:00 +24°C° 0 mm 6 mps 760 mmHg 76%
    18:00 +24°C° 0 mm 7 mps 760 mmHg 76%
    19:00 +23°C° 0 mm 8 mps 760 mmHg 75%
    20:00 +24°C° 0.1 mm 8 mps 760 mmHg 73%
    21:00 +24°C° 0.1 mm 8 mps 760 mmHg 71%
    22:00 +24°C° 0.1 mm 8 mps 760 mmHg 69%
    23:00 +24°C° 0 mm 7 mps 760 mmHg 70%
    Show more